GW4086 Weather Reports


time (UTC)temp
C
wind
direction
speed
KPH
gust
KPH
rain 1hr
cm
rain 24hr
cm
rain mn
cm
humidity
%
barometer
mb
20260505124550 4 280 3.2 9.7 0.00 0.00 0.00 53 1019.3
20260505123056 4 300 3.2 6.4 0.00 0.00 0.00 53 1019.2
20260505121551 4 340 3.2 4.8 0.00 0.00 0.00 52 1019.2
20260505120055 4 327 1.6 8.0 0.00 0.00 0.00 50 1019.1
20260505114558 4 44 1.6 6.4 0.00 0.00 0.00 49 1019.0
20260505113107 5 0 1.6 4.8 0.00 0.00 0.00 50 1018.9
20260505111552 5 0 0.0 3.2 0.00 0.00 0.00 50 1018.9
20260505101555 4 0 0.0 0.0 0.00 0.00 0.00 53 1018.4
20260505100055 4 0 0.0 1.6 0.00 0.00 0.00 53 1018.3
20260505094557 3 0 0.0 3.2 0.00 0.00 0.00 52 1018.3
20260505093100 3 0 0.0 0.0 0.00 0.00 0.00 53 1018.1
20260505091603 4 0 0.0 0.0 0.00 0.00 0.00 54 1018.1
20260505090054 4 0 0.0 1.6 0.00 0.00 0.00 53 1018.0
20260505084554 3 0 0.0 1.6 0.00 0.00 0.00 53 1018.3
20260505083058 4 0 0.0 1.6 0.00 0.00 0.00 52 1018.3
20260505081604 4 0 0.0 4.8 0.00 0.00 0.00 50 1018.2
20260505080053 3 0 0.0 1.6 0.00 0.00 0.00 52 1018.2
20260505074549 3 250 1.6 3.2 0.00 0.00 0.00 51 1018.0
20260505073106 3 0 0.0 1.6 0.00 0.00 0.00 51 1018.1
20260505071559 4 35 0.0 3.2 0.00 0.00 0.00 49 1018.0
20260505070101 4 0 0.0 1.6 0.00 0.00 0.00 49 1018.2
20260505064552 4 0 0.0 3.2 0.00 0.00 0.00 49 1018.1
20260505063056 4 0 0.0 4.8 0.00 0.00 0.00 49 1017.9
20260505061554 5 0 0.0 1.6 0.00 0.00 0.00 48 1017.8
20260505060059 5 0 0.0 3.2 0.00 0.00 0.00 47 1017.8
20260505054558 5 0 0.0 3.2 0.00 0.00 0.00 46 1017.8
20260505053056 5 118 0.0 3.2 0.00 0.00 0.00 46 1017.6
20260505051605 5 82 3.2 11.3 0.00 0.00 0.00 45 1017.5
20260505050105 5 60 4.8 16.1 0.00 0.00 0.00 44 1017.5
20260505041557 6 41 3.2 17.7 0.00 0.00 0.00 41 1017.1
20260505040054 7 65 9.7 16.1 0.00 0.00 0.00 40 1017.0
20260505034554 7 22 4.8 14.5 0.00 0.00 0.00 40 1017.0
20260505033053 7 291 9.7 19.3 0.00 0.00 0.00 39 1016.8
20260505031555 7 63 8.0 19.3 0.00 0.00 0.00 37 1016.5
20260505030058 8 32 8.0 16.1 0.00 0.00 0.00 34 1016.2
20260505024600 9 40 9.7 20.9 0.00 0.00 0.00 32 1016.0
20260505023054 10 23 9.7 19.3 0.00 0.00 0.00 27 1015.7
20260505021551 11 58 9.7 20.9 0.00 0.00 0.00 24 1015.4
20260505020054 12 342 8.0 25.7 0.00 0.00 0.00 22 1015.2
20260505014557 12 342 8.0 24.1 0.00 0.00 0.00 20 1015.1
20260505013102 12 319 17.7 27.4 0.00 0.00 0.00 20 1014.8
20260505011556 13 316 12.9 32.2 0.00 0.00 0.00 20 1014.7
20260505010115 13 312 17.7 30.6 0.00 0.00 0.00 20 1014.7
20260505004552 13 308 16.1 33.8 0.00 0.00 0.00 20 1014.8
20260505003053 13 321 22.5 37.0 0.00 0.00 0.00 21 1014.9
20260505001552 13 341 19.3 37.0 0.00 0.00 0.00 21 1014.8
20260505000100 13 321 22.5 35.4 0.00 0.00 0.00 21 1014.8
20260504234554 13 302 19.3 35.4 0.00 0.00 0.00 22 1014.9
20260504233101 13 331 19.3 35.4 0.00 0.00 0.00 23 1014.8
20260504231552 13 297 17.7 35.4 0.00 0.00 0.00 25 1014.6
20260504230100 12 317 25.7 38.6 0.00 0.00 0.00 26 1015.0
20260504224552 12 322 14.5 27.4 0.00 0.00 0.00 28 1015.0
20260504223102 12 297 14.5 32.2 0.00 0.00 0.00 29 1015.0
20260504221558 12 319 16.1 32.2 0.00 0.00 0.00 28 1015.0
20260504214615 12 325 17.7 32.2 0.00 0.00 0.00 29 1014.9
20260504213121 12 352 20.9 33.8 0.00 0.00 0.00 28 1014.9
20260504211601 13 315 22.5 37.0 0.00 0.00 0.00 29 1014.9
20260504204555 13 324 19.3 30.6 0.00 0.00 0.00 28 1014.9
20260504203105 13 352 19.3 38.6 0.00 0.00 0.00 29 1014.8
20260504201613 13 320 22.5 33.8 0.00 0.00 0.00 29 1014.8
20260504200111 13 345 19.3 30.6 0.00 0.00 0.00 31 1014.8
20260504194602 13 301 25.7 37.0 0.00 0.00 0.00 30 1014.9
20260504193051 13 292 19.3 32.2 0.00 0.00 0.00 29 1014.9
20260504191608 14 311 20.9 33.8 0.00 0.00 0.00 29 1014.9
20260504190114 13 308 24.1 35.4 0.00 0.00 0.00 29 1015.0
20260504184622 13 317 17.7 35.4 0.00 0.00 0.00 32 1015.1
20260504183056 13 297 16.1 29.0 0.00 0.00 0.00 31 1015.1
20260504181600 13 315 14.5 32.2 0.00 0.00 0.00 34 1015.2
20260504180056 13 288 19.3 29.0 0.00 0.00 0.00 33 1015.2
20260504174554 12 306 19.3 35.4 0.00 0.00 0.00 34 1015.3
20260504173055 13 300 22.5 32.2 0.00 0.00 0.00 34 1015.2
20260504171605 12 314 20.9 30.6 0.00 0.00 0.00 37 1015.2
20260504140110 8 274 8.0 12.9 0.00 0.00 0.00 60 1015.8